FW0158 Weather Reports


Display with metric or nautical units.
time (UTC)temp
F
wind
direction
speed
MPH
gust
MPH
rain 1hr
in
rain 24hr
in
rain mn
in
humidity
%
barometer
mb
20260504173153 76 230 9.0 16.0 0.00 0.00 0.00 38 1014.2
20260504172939 77 285 8.0 13.0 0.00 0.00 0.00 40 1014.2
20260504171832 76 268 6.0 16.0 0.00 0.00 0.00 40 1014.5
20260504170722 76 290 9.0 15.0 0.00 0.00 0.00 41 1014.5
20260504160257 73 283 8.0 14.0 0.00 0.00 0.00 46 1015.6
20260504150513 71 299 7.0 12.0 0.00 0.00 0.00 50 1015.6
20260504141152 67 267 6.0 11.0 0.00 0.00 0.00 54 1015.9
20260504140937 67 292 7.0 11.0 0.00 0.00 0.00 54 1015.9
20260504130512 59 263 0.0 1.0 0.00 0.00 0.00 70 1016.2
20260504110512 44 358 0.0 2.0 0.00 0.00 0.00 97 1015.6
20260504100512 45 4 0.0 1.0 0.00 0.00 0.00 96 1015.2
20260504081616 46 69 1.0 1.0 0.00 0.00 0.00 94 1015.2
20260504080723 46 134 0.0 2.0 0.00 0.00 0.00 95 1015.2
20260504050725 49 67 0.0 1.0 0.00 0.00 0.00 87 1016.6
20260504045151 49 355 1.0 2.0 0.00 0.00 0.00 85 1016.6
20260504044512 49 297 0.0 1.0 0.00 0.00 0.00 85 1016.9
20260504044043 50 21 1.0 1.0 0.00 0.00 0.00 84 1016.9
20260504043151 50 31 1.0 1.0 0.00 0.00 0.00 83 1016.9
20260504041831 50 161 1.0 2.0 0.00 0.00 0.00 86 1016.9
20260504041613 50 343 1.0 1.0 0.00 0.00 0.00 83 1016.9
20260504040934 51 360 1.0 1.0 0.00 0.00 0.00 81 1016.9
20260504040255 51 100 0.0 1.0 0.00 0.00 0.00 79 1016.9
20260504035402 51 70 0.0 2.0 0.00 0.00 0.00 79 1016.9
20260504033832 53 15 1.0 2.0 0.00 0.00 0.00 73 1016.9
20260504033404 54 293 1.0 2.0 0.00 0.00 0.00 69 1016.9
20260504031831 55 267 1.0 1.0 0.00 0.00 0.00 65 1016.9
20260504031151 55 240 1.0 2.0 0.00 0.00 0.00 64 1016.9
20260504030043 56 206 1.0 2.0 0.00 0.00 0.00 66 1016.9
20260504025151 57 182 1.0 2.0 0.00 0.00 0.00 64 1017.3
20260504024511 57 168 1.0 2.0 0.00 0.00 0.00 63 1016.9
20260504023151 57 206 1.0 2.0 0.00 0.00 0.00 63 1016.9
20260504022511 57 203 1.0 2.0 0.00 0.00 0.00 63 1017.3
20260504022254 57 206 1.0 2.0 0.00 0.00 0.00 62 1017.3
20260504021151 57 55 0.0 1.0 0.00 0.00 0.00 63 1017.3
20260504020043 59 335 0.0 1.0 0.00 0.00 0.00 56 1016.9
20260504015830 60 206 0.0 1.0 0.00 0.00 0.00 58 1016.9
20260504013829 61 210 1.0 2.0 0.00 0.00 0.00 53 1016.9
20260504012510 62 203 1.0 2.0 0.00 0.00 0.00 49 1016.6
20260504011829 62 196 1.0 2.0 0.00 0.00 0.00 48 1016.6
20260504010723 63 197 1.0 2.0 0.00 0.00 0.00 47 1016.6
20260504005829 64 202 1.0 3.0 0.00 0.00 0.00 46 1016.6
20260504005359 64 215 1.0 3.0 0.00 0.00 0.00 43 1016.6
20260504004509 64 218 1.0 4.0 0.00 0.00 0.00 42 1016.6
20260504004254 65 215 2.0 4.0 0.00 0.00 0.00 41 1016.6
20260504003149 65 230 2.0 4.0 0.00 0.00 0.00 41 1016.2
20260504002722 66 219 2.0 4.0 0.00 0.00 0.00 39 1016.2
20260504000932 68 246 3.0 5.0 0.00 0.00 0.00 37 1016.6
20260504000040 68 233 3.0 7.0 0.00 0.00 0.00 36 1016.6
20260503235613 68 215 3.0 7.0 0.00 0.00 0.00 36 1016.6
20260503234934 69 244 3.0 7.0 0.00 0.00 0.00 35 1016.6
20260503232510 70 277 4.0 6.0 0.00 0.00 0.00 34 1016.9
20260503232257 69 268 3.0 7.0 0.00 0.00 0.00 32 1016.9
20260503231612 69 210 2.0 10.0 0.00 0.00 0.00 32 1016.9
20260503230510 70 299 6.0 10.0 0.00 0.00 0.00 32 1016.9
20260503230040 70 246 4.0 10.0 0.00 0.00 0.00 31 1016.9
20260503224721 70 304 8.0 10.0 0.00 0.00 0.00 30 1016.9
20260503223616 70 314 5.0 8.0 0.00 0.00 0.00 28 1017.3
20260503222510 70 336 5.0 10.0 0.00 0.00 0.00 29 1017.3
20260503221830 71 306 6.0 10.0 0.00 0.00 0.00 28 1017.3
20260503221149 70 298 3.0 7.0 0.00 0.00 0.00 27 1017.3
20260503220509 70 259 4.0 8.0 0.00 0.00 0.00 29 1017.6
20260503220041 70 273 3.0 9.0 0.00 0.00 0.00 29 1017.6
20260503215402 70 259 3.0 10.0 0.00 0.00 0.00 28 1017.6
20260503214508 70 297 6.0 11.0 0.00 0.00 0.00 27 1017.6
20260503213145 70 304 9.0 15.0 0.00 0.00 0.00 29 1018.0
20260503211828 70 328 5.0 12.0 0.00 0.00 0.00 27 1018.0
20260503210934 69 260 6.0 11.0 0.00 0.00 0.00 28 1018.0
20260503205148 69 317 8.0 14.0 0.00 0.00 0.00 28 1018.3
20260503204931 69 307 9.0 14.0 0.00 0.00 0.00 28 1018.3
20260503203612 69 308 5.0 12.0 0.00 0.00 0.00 29 1018.7
20260503202720 69 325 7.0 12.0 0.00 0.00 0.00 30 1018.7
20260503201148 68 284 6.0 15.0 0.00 0.00 0.00 30 1019.0
20260503195829 69 274 4.0 9.0 0.00 0.00 0.00 29 1019.3
20260503195616 68 308 5.0 13.0 0.00 0.00 0.00 29 1019.7
20260503194723 69 280 4.0 10.0 0.00 0.00 0.00 32 1019.7
20260503194039 69 225 3.0 10.0 0.00 0.00 0.00 30 1019.7
20260503193613 68 230 3.0 12.0 0.00 0.00 0.00 32 1019.7
20260503192933 68 321 7.0 12.0 0.00 0.00 0.00 29 1020.0
20260503191149 67 314 8.0 14.0 0.00 0.00 0.00 28 1020.4
20260503190510 67 326 7.0 15.0 0.00 0.00 0.00 29 1020.4
20260503185830 67 313 8.0 15.0 0.00 0.00 0.00 28 1020.4
20260503185149 67 304 7.0 13.0 0.00 0.00 0.00 29 1020.4
20260503184510 66 333 7.0 12.0 0.00 0.00 0.00 29 1020.7
20260503183401 66 302 6.0 14.0 0.00 0.00 0.00 32 1020.7
20260503182042 66 315 8.0 15.0 0.00 0.00 0.00 32 1021.1
20260503180723 67 203 2.0 8.0 0.00 0.00 0.00 31 1021.1
20260503175359 65 326 4.0 10.0 0.00 0.00 0.00 33 1021.4
20260503174509 65 328 3.0 6.0 0.00 0.00 0.00 34 1021.4
20260503174254 64 308 3.0 10.0 0.00 0.00 0.00 35 1021.4